EW4498 Weather Reports


time (UTC)temp
F
wind
direction
speed
knots
gust
knots
rain 1hr
in
rain 24hr
in
rain mn
in
humidity
%
barometer
mb
20260506070104 52 44 2.6 8.7 0.00 0.00 0.00 49 1010.1
20260506061536 50 34 1.7 4.3 0.00 0.00 0.00 52 1010.1
20260506044517 42 13 0.0 0.9 0.00 0.00 0.00 70 1010.6
20260506043010 40 13 0.0 0.9 0.00 0.00 0.00 73 1010.6
20260506041502 39 13 0.0 2.6 0.00 0.00 0.00 76 1010.5
20260506040101 38 107 0.0 0.9 0.00 0.00 0.00 79 1010.4
20260506034558 38 107 0.0 2.6 0.00 0.00 0.00 79 1010.4
20260506033055 37 350 0.0 1.7 0.00 0.00 0.00 81 1010.4
20260506031601 37 349 0.0 0.9 0.00 0.00 0.00 81 1010.6
20260506030111 38 349 0.0 0.0 0.00 0.00 0.00 82 1010.7
20260506024552 38 10 0.0 1.7 0.00 0.00 0.00 82 1010.7
20260506023051 38 13 0.0 4.3 0.00 0.00 0.00 84 1010.8
20260506021550 37 5 0.0 2.6 0.00 0.00 0.00 87 1010.8
20260506020048 36 350 0.0 0.9 0.00 0.00 0.00 88 1010.9
20260506014553 35 349 0.0 0.9 0.00 0.00 0.00 88 1010.9
20260506013049 34 349 0.0 0.9 0.00 0.00 0.00 88 1011.1
20260506011553 34 349 0.0 0.0 0.00 0.00 0.00 86 1011.1
20260506010044 35 349 0.0 0.0 0.00 0.00 0.00 86 1011.1
20260506004618 35 349 0.0 0.0 0.00 0.00 0.00 85 1011.0
20260506003041 35 349 0.0 0.0 0.00 0.00 0.00 85 1010.9
20260506001539 36 349 0.0 0.0 0.00 0.00 0.00 85 1010.9
20260506000041 36 349 0.0 0.0 0.00 0.00 0.00 83 1010.9
20260505234604 37 349 0.0 0.0 0.00 0.00 0.00 83 1010.9
20260505233034 37 349 0.0 0.0 0.00 0.00 0.00 84 1010.8
20260505231536 37 349 0.0 0.0 0.00 0.00 0.00 80 1010.8
20260505230029 38 349 0.0 0.0 0.00 0.00 0.00 79 1010.8
20260505224530 39 349 0.0 0.0 0.00 0.00 0.00 77 1010.9
20260505223023 40 349 0.0 0.0 0.00 0.00 0.00 76 1011.0
20260505221522 40 349 0.0 0.0 0.00 0.00 0.00 75 1011.0
20260505220020 41 349 0.0 0.0 0.00 0.00 0.00 73 1011.0
20260505214521 41 349 0.0 0.9 0.00 0.00 0.00 71 1011.0
20260505213016 42 350 0.0 2.6 0.00 0.00 0.00 70 1011.0
20260505211515 41 345 0.9 1.7 0.00 0.00 0.00 70 1011.0
20260505210014 42 345 0.0 0.0 0.00 0.00 0.00 70 1011.1
20260505204522 43 345 0.0 1.7 0.00 0.00 0.00 69 1011.2
20260505203011 43 342 0.0 1.7 0.00 0.00 0.00 68 1011.2
20260505201510 42 340 0.0 0.0 0.00 0.00 0.00 70 1011.3
20260505200015 43 340 0.0 0.0 0.00 0.00 0.00 69 1011.1
20260505194505 45 340 0.0 0.9 0.00 0.00 0.00 66 1011.1
20260505193003 47 340 0.0 0.0 0.00 0.00 0.00 61 1011.1
20260505191504 48 340 0.0 0.9 0.00 0.00 0.00 54 1011.0
20260505190002 50 340 0.0 1.7 0.00 0.00 0.00 50 1010.9
20260505184502 51 339 0.9 2.6 0.00 0.00 0.00 48 1011.0
20260505183006 52 344 0.9 2.6 0.00 0.00 0.00 45 1011.0
20260505181501 52 349 0.0 4.3 0.00 0.00 0.00 43 1011.0
20260505180001 53 330 0.9 4.3 0.00 0.00 0.00 42 1011.0
20260505173100 54 360 2.6 7.0 0.00 0.00 0.00 39 1011.0
20260505171559 54 46 2.6 7.8 0.00 0.00 0.00 38 1011.1
20260505170101 55 11 2.6 8.7 0.00 0.00 0.00 42 1011.0
20260505164630 55 336 2.6 11.3 0.00 0.00 0.00 41 1011.1
20260505163057 56 31 3.5 10.4 0.00 0.00 0.00 36 1011.0
20260505161559 56 350 3.5 12.2 0.00 0.00 0.00 37 1011.0
20260505160107 57 348 2.6 9.6 0.00 0.00 0.00 39 1010.8
20260505153053 58 23 3.5 10.4 0.00 0.00 0.00 41 1010.7
20260505151552 58 331 5.2 12.2 0.00 0.00 0.00 38 1010.9
20260505124543 59 344 2.6 9.6 0.00 0.00 0.00 45 1011.0
20260505123035 58 318 5.2 9.6 0.00 0.00 0.00 43 1010.9
20260505121536 58 319 4.3 12.2 0.00 0.00 0.00 45 1011.0
20260505120038 58 51 3.5 8.7 0.00 0.00 0.00 45 1011.0
20260505114530 58 19 3.5 7.8 0.00 0.00 0.00 47 1011.0
20260505113032 58 325 2.6 7.8 0.00 0.00 0.00 51 1011.1
20260505111527 57 47 4.3 9.6 0.00 0.00 0.00 57 1011.1
20260505101526 56 324 1.7 11.3 0.00 0.00 0.00 58 1011.3
20260505100022 56 22 1.7 7.8 0.00 0.00 0.00 60 1011.4
20260505094525 56 317 5.2 9.6 0.00 0.01 0.00 57 1011.5
20260505093015 54 26 2.6 9.6 0.00 0.01 0.00 63 1011.5
20260505091512 52 320 4.3 8.7 0.00 0.01 0.00 64 1011.6
20260505090011 53 63 4.3 11.3 0.00 0.01 0.00 63 1011.6
20260505084509 53 5 3.5 8.7 0.00 0.01 0.00 63 1011.6
20260505083008 55 54 1.7 4.3 0.00 0.01 0.00 62 1011.5
20260505081506 52 304 2.6 8.7 0.00 0.01 0.00 65 1011.6
20260505080005 53 22 2.6 7.8 0.00 0.01 0.00 63 1011.5
20260505074503 54 355 3.5 8.7 0.00 0.01 0.00 62 1011.6
20260505073001 52 313 1.7 4.3 0.00 0.01 0.00 67 1011.5
20260505071600 51 346 2.6 7.0 0.00 0.01 0.00 70 1011.5